Showing default

GAOFEN 11, 43585

Orbit data source: Space-Track

GAOFEN 11, 43585 is a payload satellite owned by PLA SSF (CN) in SSO that was launched on Tue, 31 Jul 2018 UTC via a CHANG ZHENG 4B launch vehicle from the Taiyaun Space Center, China (TSC). Payload-class satellites include a variety of spacecraft equipped with specific instruments for various scientific and technological missions. These include communications satellites like Starlink; space stations such as the ISS; scientific satellites like the Hubble; Earth observation satellites from companies like Planet Labs, Umbra, and HawkEye 360; GPS; miniature CubeSats for education and research; and military/defense satellites.

Loading next visibility...
Identifier
43585, 2018-063A
Orbit
SSO
Country
Flag of CNCN / PRC
Related business
Manufacturer
CAST
Mission
Operational Defense Imaging
Bus & Motor
YW-5?, Unknown motor
Mass
~3,000 kg wet, ~3,000 kg dry
Launch date (UTC)
2018-07-31 (7 years ago)
Launch vehicle
CHANG ZHENG 4B
Launch site
Taiyaun Space Center, China (TSC)
Object type
Payload
Rocket body
Debris
Shape & HBR
Box + 2 Pan, 4.0 m
Radar Cross Section
9.231 m², Large (>1 m²)

Expand to show TLE details & history
Last TLE update: 5 hours ago

TLE from 5 hours ago
0 GAOFEN 11
1 43585U 18063A   25308.62669249  .00015043  00000-0  29201-3 0  9995
2 43585  97.1624  11.9101 0007235  84.2883 275.9193 15.47712608405522
Epoch: 2025-11-04T15:02Z
TLE epoch observation values (Epoch: 2025-11-04T15:02:26.231Z)
Latitude
0.00004°
Longitude
102.18979°
Altitude
426.05 km
Speed
7.656 km/s
True Right ascension
00h 47m 38s
True Declination
0° 00' 00"
Sunlit
Object was in full shadow at epoch
Visualization orbit readout
Latitude
Unknown
Longitude
Unknown
Altitude
Unknown
Speed
Unknown
Apparent Right ascension
Unknown
Apparent Declination
Unknown
Sunlit
N/A
Visualization observer readout
Local Sidereal Time
16:24:11
Azimuth
Unknown
Elevation
Unknown
Doppler factor
Unknown
Orbital elements
Apogee altitude
425.257 km
Perigee altitude
415.419 km
Semi-major axis
6,798.475 km
Eccentricity
0.00072
Inclination
97.1624°
RAAN
11.9101°
Arg. of periapsis
84.2883°
True anomaly
275.83683°
Mean anomaly
275.9193°
Eccentric anomaly
275.87806°
Mean motion
3.87192 °/min
Orbital period
92.98 mins
BSTAR
0.00029201
Loading maneuver chart data...
Computing Atmospheric mass density...
Loading historical data...
Loading historical data...
Loading historical data...
Loading historical data...
Loading historical data...
Loading historical data...
Loading historical data...
Other satellites on launch #63 in the year 2018 (2018-07-31 UTC)

Documentation

Showing up to 5 results
|